KK4WXG Weather Reports


time (UTC)temp
F
wind
direction
speed
knots
gust
knots
rain 1hr
in
rain 24hr
in
rain mn
in
humidity
%
barometer
mb
20260507160600 63 352 4.3 5.2 0.00 0.00 0.00 38 1011.1
20260507160056 61 51 1.7 4.3 0.00 0.00 0.00 37 1011.2
20260507155552 62 24 1.7 7.0 0.00 0.00 0.00 41 1011.2
20260507155049 63 43 7.0 7.8 0.00 0.00 0.00 40 1011.1
20260507154546 63 33 5.2 5.2 0.00 0.00 0.00 43 1011.1
20260507154043 62 23 1.7 5.2 0.00 0.00 0.00 40 1011.1
20260507153540 61 311 3.5 8.7 0.00 0.00 0.00 40 1011.5
20260507153036 62 9 1.7 3.5 0.00 0.00 0.00 46 1011.3
20260507152532 62 88 2.6 3.5 0.00 0.00 0.00 43 1011.6
20260507152028 62 94 4.3 7.8 0.00 0.00 0.00 44 1011.5
20260507151524 62 43 2.6 5.2 0.00 0.00 0.00 47 1011.5
20260507151022 61 219 1.7 5.2 0.00 0.00 0.00 43 1011.6
20260507150518 60 344 1.7 11.3 0.00 0.00 0.00 46 1011.8
20260507150015 59 320 5.2 11.3 0.00 0.00 0.00 42 1011.9
20260507145510 60 349 2.6 3.5 0.00 0.00 0.00 47 1012.1
20260507145008 59 56 1.7 3.5 0.00 0.00 0.00 44 1012.2
20260507144504 57 40 1.7 4.3 0.00 0.00 0.00 45 1012.3
20260507144001 57 31 1.7 5.2 0.00 0.00 0.00 45 1012.3
20260507143459 57 304 0.9 5.2 0.00 0.00 0.00 45 1012.2
20260507142956 58 28 2.6 5.2 0.00 0.00 0.00 47 1012.3
20260507142451 58 353 1.7 4.3 0.00 0.00 0.00 44 1012.6
20260507141948 57 343 2.6 7.0 0.00 0.00 0.00 44 1012.6
20260507141444 57 353 0.9 2.6 0.00 0.00 0.00 50 1012.8
20260507140941 56 36 0.0 4.3 0.00 0.00 0.00 45 1012.7
20260507140438 56 79 2.6 4.3 0.00 0.00 0.00 48 1012.7
20260507135936 56 58 7.8 7.8 0.00 0.00 0.00 45 1012.8
20260507135432 56 48 1.7 6.1 0.00 0.00 0.00 48 1012.8
20260507134930 56 356 1.7 3.5 0.00 0.00 0.00 47 1013.0
20260507134426 56 57 2.6 2.6 0.00 0.00 0.00 52 1012.8
20260507133922 56 347 2.6 4.3 0.00 0.00 0.00 48 1013.0
20260507133419 56 327 1.7 1.7 0.00 0.00 0.00 53 1013.0
20260507132917 55 39 2.6 8.7 0.00 0.00 0.00 47 1013.1
20260507132413 55 251 0.9 2.6 0.00 0.00 0.00 51 1013.4
20260507131909 55 21 0.9 3.5 0.00 0.00 0.00 51 1013.1
20260507131406 55 297 0.0 4.3 0.00 0.00 0.00 52 1013.2
20260507130903 55 336 0.0 2.6 0.00 0.00 0.00 55 1013.1
20260507130400 54 40 1.7 3.5 0.00 0.00 0.00 53 1013.1
20260507125859 54 43 2.6 4.3 0.00 0.00 0.00 52 1013.1
20260507125356 54 290 4.3 5.2 0.00 0.00 0.00 52 1013.0
20260507124854 55 308 3.5 4.3 0.00 0.00 0.00 54 1013.4
20260507124349 55 295 1.7 3.5 0.00 0.00 0.00 53 1013.3
20260507123848 55 293 3.5 5.2 0.00 0.00 0.00 52 1013.1
20260507123345 55 291 1.7 2.6 0.00 0.00 0.00 54 1013.1
20260507122842 54 68 0.0 1.7 0.00 0.00 0.00 55 1013.1
20260507122337 54 181 0.9 3.5 0.00 0.00 0.00 57 1013.1
20260507121834 54 48 2.6 3.5 0.00 0.00 0.00 53 1013.1
20260507121329 54 120 1.7 4.3 0.00 0.00 0.00 55 1012.9
20260507120826 53 273 0.0 4.3 0.00 0.00 0.00 55 1013.0
20260507120322 53 352 2.6 3.5 0.00 0.00 0.00 54 1012.7
20260507115818 53 45 1.7 3.5 0.00 0.00 0.00 56 1012.8
20260507115314 53 91 1.7 3.5 0.00 0.00 0.00 55 1012.8
20260507114810 53 98 0.9 1.7 0.00 0.00 0.00 55 1012.9
20260507114308 53 58 4.3 4.3 0.00 0.00 0.00 54 1012.6
20260507113805 53 65 0.9 2.6 0.00 0.00 0.00 56 1012.6
20260507113301 53 349 0.0 4.3 0.00 0.00 0.00 57 1012.5
20260507112759 53 100 2.6 3.5 0.00 0.00 0.00 56 1012.5
20260507112256 53 84 1.7 3.5 0.00 0.00 0.00 57 1012.8
20260507111754 53 327 0.0 1.7 0.00 0.00 0.00 59 1012.7
20260507111250 53 60 1.7 2.6 0.00 0.00 0.00 57 1012.8
20260507110746 53 70 0.0 1.7 0.00 0.00 0.00 56 1012.6
20260507110243 53 81 0.9 3.5 0.00 0.00 0.00 54 1012.6
20260507105740 53 63 1.7 3.5 0.00 0.00 0.00 56 1012.6
20260507105236 53 60 1.7 3.5 0.00 0.00 0.00 55 1012.8
20260507104733 53 116 1.7 1.7 0.00 0.00 0.00 56 1012.5
20260507104230 53 113 2.6 2.6 0.00 0.00 0.00 55 1012.4
20260507103726 53 122 1.7 3.5 0.00 0.00 0.00 55 1012.2
20260507103222 53 82 1.7 4.3 0.00 0.00 0.00 54 1012.2
20260507102719 53 153 0.9 3.5 0.00 0.00 0.00 53 1012.2
20260507102215 53 0 3.5 5.2 0.00 0.00 0.00 54 1011.9
20260507101712 53 66 1.7 5.2 0.00 0.00 0.00 54 1012.1
20260507101207 53 55 1.7 3.5 0.00 0.00 0.00 55 1012.1
20260507100704 53 47 2.6 4.3 0.00 0.00 0.00 55 1012.1
20260507100203 53 85 3.5 4.3 0.00 0.00 0.00 56 1011.8
20260507095701 53 52 1.7 4.3 0.00 0.00 0.00 57 1011.8
20260507095156 53 37 1.7 2.6 0.00 0.00 0.00 56 1011.7
20260507094653 53 47 4.3 7.0 0.00 0.00 0.00 55 1011.3
20260507094150 54 346 3.5 3.5 0.00 0.00 0.00 56 1011.4
20260507093648 54 37 1.7 5.2 0.00 0.00 0.00 56 1011.4
20260507093146 54 60 2.6 4.3 0.00 0.00 0.00 58 1011.1
20260507092643 54 61 6.1 7.8 0.00 0.00 0.00 59 1011.3
20260507092139 54 79 3.5 4.3 0.00 0.00 0.00 62 1011.3
20260507091635 54 83 4.3 6.1 0.00 0.00 0.00 63 1011.6
20260507091131 54 62 4.3 5.2 0.00 0.00 0.00 65 1011.4
20260507090627 54 21 3.5 3.5 0.00 0.00 0.00 66 1011.4
20260507090125 54 336 1.7 3.5 0.00 0.00 0.00 66 1011.3
20260507085622 54 0 0.9 4.3 0.00 0.00 0.00 67 1011.3
20260507085118 55 41 1.7 4.3 0.00 0.00 0.00 68 1011.4
20260507084615 55 43 1.7 3.5 0.00 0.00 0.00 69 1011.6
20260507084112 55 20 2.6 5.2 0.00 0.00 0.00 69 1011.3
20260507083609 55 58 1.7 3.5 0.00 0.00 0.00 71 1011.4
20260507083106 55 30 0.0 2.6 0.00 0.00 0.00 71 1011.4
20260507082601 55 324 2.6 3.5 0.00 0.00 0.00 72 1011.3
20260507082058 55 91 0.9 1.7 0.00 0.00 0.00 73 1011.1
20260507081554 55 22 0.0 2.6 0.00 0.00 0.00 72 1011.3
20260507081051 55 77 1.7 2.6 0.00 0.00 0.00 72 1011.1
20260507080547 55 41 1.7 3.5 0.00 0.00 0.00 72 1011.0
20260507080044 55 40 1.7 3.5 0.00 0.00 0.00 72 1010.9
20260507075539 55 66 1.7 4.3 0.00 0.00 0.00 72 1010.8
20260507075036 55 339 1.7 4.3 0.00 0.00 0.00 72 1010.7
20260507074533 55 60 0.9 3.5 0.00 0.00 0.00 73 1010.6
20260507074031 55 63 1.7 4.3 0.00 0.00 0.00 72 1011.1
20260507073527 55 96 0.0 3.5 0.00 0.00 0.00 72 1010.9
20260507073023 55 62 5.2 6.1 0.00 0.00 0.00 71 1010.9
20260507072521 55 0 3.5 4.3 0.00 0.00 0.00 72 1010.8
20260507072018 55 62 3.5 7.8 0.00 0.00 0.00 72 1010.7
20260507071515 55 68 2.6 4.3 0.00 0.00 0.00 72 1010.7
20260507071012 55 5 2.6 2.6 0.00 0.00 0.00 73 1010.9
20260507070509 55 84 0.9 3.5 0.00 0.00 0.00 72 1010.9
20260507070010 55 67 1.7 4.3 0.00 0.00 0.00 72 1011.0
20260507065502 55 34 0.0 2.6 0.00 0.00 0.00 72 1010.7
20260507065000 55 50 1.7 4.3 0.00 0.00 0.00 72 1011.0
20260507064458 56 72 3.5 3.5 0.00 0.00 0.00 71 1011.1
20260507063955 56 39 0.9 6.1 0.00 0.00 0.00 70 1011.1
20260507063452 56 36 1.7 5.2 0.00 0.00 0.00 71 1011.1
20260507062949 56 16 3.5 5.2 0.00 0.00 0.00 71 1011.3
20260507062446 56 356 5.2 5.2 0.00 0.00 0.00 71 1011.2
20260507061943 56 22 1.7 6.1 0.00 0.00 0.00 71 1011.2
20260507061442 56 40 0.0 11.3 0.00 0.00 0.00 71 1011.3
20260507060940 56 38 4.3 6.1 0.00 0.00 0.00 71 1011.4
20260507060436 56 56 2.6 5.2 0.00 0.00 0.00 71 1011.2
20260507055933 56 30 2.6 4.3 0.00 0.00 0.00 71 1011.2
20260507055428 56 55 3.5 4.3 0.00 0.00 0.00 71 1011.5
20260507054925 56 9 1.7 4.3 0.00 0.00 0.00 71 1011.2
20260507054421 56 31 2.6 3.5 0.00 0.00 0.00 71 1010.9
20260507053919 56 84 1.7 4.3 0.00 0.00 0.00 71 1011.1
20260507053416 56 88 1.7 2.6 0.00 0.00 0.00 71 1011.1
20260507052915 56 48 2.6 4.3 0.00 0.00 0.00 71 1011.0
20260507052412 56 69 3.5 5.2 0.00 0.00 0.00 71 1010.7
20260507051909 56 52 2.6 3.5 0.00 0.00 0.00 72 1010.9
20260507051407 56 66 1.7 2.6 0.00 0.00 0.00 74 1011.2
20260507050903 57 23 0.0 2.6 0.00 0.00 0.00 74 1011.2
20260507050359 57 21 0.0 3.5 0.00 0.00 0.00 75 1010.9
20260507045857 57 300 0.9 2.6 0.00 0.00 0.00 76 1011.0
20260507045353 57 80 0.0 1.7 0.00 0.00 0.00 78 1011.1
20260507044850 57 43 1.7 5.2 0.00 0.00 0.00 77 1011.1
20260507044347 57 240 0.9 3.5 0.00 0.00 0.00 78 1010.9
20260507043842 57 4 1.7 4.3 0.00 0.00 0.00 78 1010.6
20260507043340 57 2 3.5 6.1 0.00 0.00 0.00 78 1010.6
20260507042836 57 30 3.5 4.3 0.00 0.00 0.00 78 1011.1
20260507042332 57 49 3.5 7.0 0.00 0.00 0.00 78 1011.1
20260507041828 57 38 1.7 4.3 0.00 0.00 0.00 78 1011.1
20260507041325 57 247 2.6 10.4 0.00 0.00 0.00 78 1011.0
20260507040822 58 12 1.7 3.5 0.00 0.00 0.00 78 1010.7
20260507040318 58 357 2.6 2.6 0.00 0.00 0.00 78 1010.4
20260507035814 58 9 6.1 7.0 0.00 0.20 0.20 77 1010.7
20260507035310 58 17 1.7 4.3 0.00 0.20 0.20 77 1010.8
20260507034808 58 72 2.6 5.2 0.00 0.20 0.20 78 1010.7
20260507034304 58 315 1.7 6.1 0.00 0.20 0.20 77 1010.4
20260507033803 58 359 1.7 3.5 0.00 0.20 0.20 77 1010.6
20260507033300 59 31 3.5 5.2 0.00 0.20 0.20 77 1010.5
20260507032757 59 349 1.7 7.8 0.00 0.20 0.20 76 1010.4
20260507032253 59 36 4.3 7.8 0.00 0.20 0.20 76 1010.5
20260507031749 59 31 2.6 7.0 0.00 0.20 0.20 77 1010.4
20260507031247 59 101 1.7 3.5 0.00 0.20 0.20 77 1010.6
20260507030743 59 76 5.2 6.1 0.00 0.20 0.20 77 1010.5
20260507030240 59 35 0.9 2.6 0.00 0.20 0.20 77 1010.6
20260507025738 59 338 1.7 3.5 0.00 0.20 0.20 76 1010.5
20260507025235 60 57 2.6 3.5 0.00 0.20 0.20 76 1010.3
20260507024733 60 60 1.7 4.3 0.00 0.20 0.20 75 1010.2
20260507024230 60 336 0.9 5.2 0.00 0.20 0.20 75 1010.2
20260507023725 60 6 3.5 6.1 0.00 0.20 0.20 75 1010.0
20260507023222 60 310 8.7 8.7 0.00 0.20 0.20 74 1010.1
20260507022720 60 323 4.3 9.6 0.00 0.20 0.20 74 1010.2
20260507022216 60 322 2.6 7.0 0.00 0.20 0.20 75 1010.1
20260507021712 60 309 1.7 5.2 0.00 0.20 0.20 76 1010.0
20260507021207 60 355 4.3 4.3 0.00 0.20 0.20 76 1010.0
20260507020706 60 326 6.1 8.7 0.00 0.20 0.20 76 1009.9
20260507020202 60 338 1.7 4.3 0.00 0.20 0.20 77 1009.8
20260507015700 60 351 1.7 7.0 0.00 0.20 0.20 76 1009.9
20260507015157 60 355 2.6 6.1 0.00 0.20 0.20 79 1010.0
20260507014653 60 24 1.7 4.3 0.00 0.20 0.20 80 1010.1
20260507014150 60 71 0.9 4.3 0.00 0.20 0.20 81 1010.4
20260507013647 60 0 1.7 4.3 0.00 0.20 0.20 81 1010.0
20260507013144 60 73 2.6 3.5 0.00 0.20 0.20 81 1010.1
20260507012642 60 99 2.6 3.5 0.00 0.20 0.20 81 1009.8
20260507012136 61 62 1.7 2.6 0.00 0.20 0.20 80 1009.7
20260507011635 61 122 1.7 3.5 0.00 0.20 0.20 80 1009.6
20260507011131 61 52 0.9 4.3 0.00 0.20 0.20 80 1009.6
20260507010626 61 93 1.7 7.0 0.02 0.20 0.20 81 1009.7
20260507010122 61 3 1.7 7.8 0.02 0.20 0.20 83 1009.5
20260507005619 61 110 1.7 11.3 0.00 0.20 0.20 83 1009.8
20260507005115 62 346 3.5 8.7 0.00 0.20 0.20 83 1009.9
20260507004612 62 32 6.1 10.4 0.05 0.20 0.20 83 1009.8
20260507004110 63 342 1.7 7.8 0.05 0.20 0.20 82 1009.8
20260507003606 64 14 2.6 5.2 0.00 0.19 0.19 78 1009.7
20260507003101 64 354 0.0 4.3 0.00 0.19 0.19 79 1010.0
20260507002558 64 348 2.6 8.7 0.00 0.19 0.19 79 1009.6
20260507002053 64 338 2.6 9.6 0.00 0.19 0.19 79 1009.8
20260507001550 65 358 2.6 4.3 0.00 0.19 0.19 79 1009.6
20260507001048 65 27 1.7 3.5 0.00 0.19 0.19 79 1009.4
20260507000544 65 43 2.6 4.3 0.00 0.19 0.19 80 1009.4
20260507000039 65 301 3.5 4.3 0.00 0.19 0.19 81 1009.4
20260506235537 66 236 0.9 3.5 0.00 0.19 0.19 81 1009.2
20260506235032 66 15 1.7 2.6 0.00 0.19 0.19 81 1009.0
20260506234531 66 30 0.9 3.5 0.00 0.19 0.19 80 1008.9
20260506234027 66 330 2.6 6.1 0.00 0.19 0.19 80 1008.8
20260506233524 66 308 3.5 6.1 0.00 0.19 0.19 79 1008.9
20260506233021 66 306 3.5 4.3 0.00 0.19 0.19 80 1008.5
20260506232517 67 333 3.5 7.0 0.00 0.19 0.19 80 1008.2
20260506232012 67 352 0.0 4.3 0.00 0.19 0.19 81 1008.2
20260506231510 67 5 1.7 8.7 0.00 0.19 0.19 80 1008.2
20260506231008 67 353 3.5 6.1 0.00 0.19 0.19 82 1008.2
20260506230504 68 298 1.7 3.5 0.00 0.19 0.19 83 1008.1
20260506230001 68 258 1.7 3.5 0.00 0.19 0.19 82 1008.3
20260506225458 68 340 1.7 1.7 0.00 0.19 0.19 82 1008.0
20260506224954 68 225 2.6 2.6 0.00 0.19 0.19 81 1008.1
20260506224452 69 232 0.0 1.7 0.00 0.19 0.19 80 1008.1
20260506223948 69 209 2.6 3.5 0.00 0.19 0.19 78 1008.0
20260506223444 69 248 1.7 3.5 0.00 0.19 0.19 79 1008.0
20260506222941 69 195 3.5 4.3 0.00 0.19 0.19 79 1007.8
20260506222438 69 211 3.5 3.5 0.00 0.19 0.19 79 1008.1
20260506221935 70 215 5.2 7.0 0.00 0.19 0.19 78 1007.8
20260506221432 70 209 3.5 4.3 0.00 0.19 0.19 77 1008.0
20260506220930 70 209 4.3 5.2 0.00 0.19 0.19 76 1008.1
20260506220425 71 196 2.6 5.2 0.00 0.19 0.19 76 1007.6
20260506215921 69 198 1.7 6.1 0.00 0.19 0.19 79 1007.7
20260506215418 69 205 5.2 8.7 0.00 0.19 0.19 77 1007.8
20260506214914 69 202 1.7 5.2 0.00 0.19 0.19 79 1007.8
20260506214411 69 207 4.3 7.0 0.00 0.19 0.19 78 1007.6
20260506213908 69 221 2.6 6.1 0.00 0.19 0.19 78 1008.1
20260506213406 68 224 4.3 5.2 0.00 0.19 0.19 79 1007.9
20260506212903 68 227 5.2 5.2 0.00 0.19 0.19 80 1007.9
20260506212359 68 203 1.7 2.6 0.00 0.19 0.19 79 1007.7
20260506211853 69 263 4.3 4.3 0.00 0.19 0.19 79 1007.7
20260506211350 69 221 4.3 4.3 0.00 0.19 0.19 79 1007.4
20260506210847 69 200 4.3 6.1 0.00 0.19 0.19 79 1007.5
20260506210344 68 168 2.6 4.3 0.00 0.19 0.19 80 1007.2
20260506205841 68 199 2.6 3.5 0.00 0.19 0.19 81 1007.4
20260506205337 68 248 4.3 4.3 0.00 0.19 0.19 80 1007.7
20260506204834 68 232 0.9 3.5 0.00 0.19 0.19 80 1007.6
20260506204331 68 237 1.7 2.6 0.00 0.19 0.19 81 1007.3
20260506203829 68 204 1.7 3.5 0.00 0.19 0.19 81 1007.2
20260506203326 68 211 5.2 7.8 0.00 0.19 0.19 80 1007.2
20260506202823 67 195 1.7 3.5 0.00 0.19 0.19 81 1007.4
20260506202320 67 193 1.7 5.2 0.00 0.19 0.19 81 1007.2
20260506201816 67 212 5.2 7.8 0.00 0.19 0.19 80 1007.4
20260506201314 68 211 7.0 10.4 0.00 0.19 0.19 79 1007.5
20260506200811 68 202 4.3 5.2 0.00 0.19 0.19 79 1007.2
20260506200307 68 193 1.7 4.3 0.00 0.19 0.19 80 1007.3
20260506195803 68 179 2.6 3.5 0.00 0.19 0.19 80 1007.3
20260506195300 68 225 5.2 9.6 0.00 0.19 0.19 78 1007.6
20260506194757 68 206 8.7 9.6 0.00 0.19 0.19 78 1007.2
20260506194253 68 204 1.7 5.2 0.00 0.19 0.19 78 1007.5
20260506193751 68 197 5.2 7.8 0.00 0.19 0.19 77 1007.2
20260506193248 69 202 5.2 8.7 0.00 0.19 0.19 76 1007.2
20260506192744 69 203 5.2 9.6 0.00 0.19 0.19 76 1007.2
20260506192241 69 205 2.6 5.2 0.00 0.19 0.19 78 1007.4
20260506191738 69 208 4.3 8.7 0.00 0.19 0.19 75 1007.4
20260506191234 70 185 6.1 9.6 0.00 0.19 0.19 75 1007.6
20260506190732 70 180 2.6 4.3 0.00 0.19 0.19 76 1007.4
20260506190228 70 202 3.5 7.8 0.00 0.19 0.19 76 1007.4
20260506185725 70 202 8.7 11.3 0.00 0.19 0.19 76 1007.3
20260506185221 70 220 8.7 9.6 0.00 0.19 0.19 76 1007.2
20260506184719 69 205 6.1 8.7 0.00 0.19 0.19 77 1007.4
20260506184216 69 208 8.7 11.3 0.00 0.19 0.19 76 1007.7
20260506183713 68 185 4.3 8.7 0.00 0.19 0.19 78 1007.6
20260506183209 68 162 4.3 7.0 0.00 0.19 0.19 79 1007.9
20260506182706 67 212 4.3 7.0 0.00 0.19 0.19 80 1007.9
20260506182203 67 219 7.8 12.2 0.00 0.19 0.19 79 1007.8
20260506181701 67 205 8.7 13.0 0.00 0.19 0.19 79 1008.0
20260506181158 67 203 7.0 13.0 0.00 0.19 0.19 79 1007.7
20260506180655 67 198 5.2 10.4 0.00 0.19 0.19 80 1007.8
20260506180151 66 191 4.3 8.7 0.00 0.19 0.19 81 1007.9
20260506175647 66 194 4.3 7.8 0.00 0.19 0.19 81 1007.8
20260506175144 66 221 5.2 9.6 0.00 0.19 0.19 81 1007.9
20260506174637 66 208 9.6 13.9 0.00 0.19 0.19 81 1008.1
20260506174134 66 193 7.8 13.9 0.00 0.19 0.19 80 1007.8
20260506173631 66 218 6.1 13.0 0.00 0.19 0.19 81 1008.0
20260506173128 66 213 5.2 13.9 0.00 0.19 0.19 81 1008.1
20260506172625 66 217 7.0 15.6 0.00 0.19 0.19 81 1008.1
20260506172121 66 209 7.0 10.4 0.00 0.19 0.19 81 1007.9
20260506171619 66 210 8.7 15.6 0.00 0.19 0.19 80 1007.9
20260506171117 66 213 5.2 11.3 0.00 0.19 0.19 82 1008.1
20260506170615 66 201 7.8 15.6 0.00 0.19 0.19 80 1008.0
20260506170111 66 190 6.1 10.4 0.00 0.19 0.19 83 1008.0
20260506165609 65 195 6.1 17.4 0.00 0.19 0.19 82 1008.0
20260506165106 66 208 10.4 16.5 0.00 0.19 0.19 83 1007.8
20260506164603 65 213 7.8 18.2 0.00 0.19 0.19 83 1008.1
20260506164100 66 194 7.8 15.6 0.00 0.19 0.19 82 1008.0
20260506163555 66 218 10.4 11.3 0.00 0.19 0.19 84 1008.1
20260506163051 65 211 7.8 15.6 0.00 0.19 0.19 85 1008.0
20260506162548 65 199 3.5 16.5 0.00 0.19 0.19 85 1008.0
20260506162045 64 213 10.4 16.5 0.00 0.19 0.19 84 1007.8
20260506161543 64 197 4.3 15.6 0.00 0.19 0.19 85 1008.1
20260506161039 64 201 6.1 11.3 0.00 0.19 0.19 87 1008.1